DW3949 Weather Reports


time (UTC)temp
F
wind
direction
speed
knots
gust
knots
rain 1hr
in
rain 24hr
in
rain mn
in
humidity
%
barometer
mb
20260504141204 61 207 1.7 5.2 0.00 0.00 0.00 52 1014.2
20260504140703 60 158 1.7 5.2 0.00 0.00 0.00 52 1014.2
20260504140204 60 165 0.9 3.5 0.00 0.00 0.00 56 1014.2
20260504130637 55 306 0.0 0.9 0.00 0.00 0.00 66 1014.7
20260504130136 54 306 0.0 2.6 0.00 0.00 0.00 68 1014.8
20260504110528 47 299 0.0 1.7 0.00 0.00 0.00 81 1015.1
20260504100519 46 275 0.0 0.0 0.00 0.00 0.00 79 1015.1
20260504081945 47 275 0.0 0.0 0.00 0.00 0.00 74 1015.4
20260504081445 47 275 0.0 0.9 0.00 0.00 0.00 74 1015.5
20260504080946 47 275 0.0 0.9 0.00 0.00 0.00 74 1015.5
20260504080939 47 275 0.0 0.9 0.00 0.00 0.00 76 1015.5
20260504050357 43 275 0.0 0.9 0.00 0.00 0.00 76 1016.0
20260504045848 43 275 0.0 0.9 0.00 0.00 0.00 75 1016.0
20260504045348 43 275 0.0 0.9 0.00 0.00 0.00 76 1016.0
20260504044846 43 275 0.0 0.9 0.00 0.00 0.00 75 1016.0
20260504044347 44 275 0.0 0.9 0.00 0.00 0.00 76 1015.9
20260504043845 44 275 0.0 0.9 0.00 0.00 0.00 76 1015.9
20260504043346 44 275 0.0 0.9 0.00 0.00 0.00 75 1015.8
20260504042839 44 275 0.0 0.0 0.00 0.00 0.00 74 1015.8
20260504042338 44 275 0.0 0.0 0.00 0.00 0.00 76 1015.8
20260504041839 44 275 0.0 0.0 0.00 0.00 0.00 76 1015.9
20260504041343 44 275 0.0 0.0 0.00 0.00 0.00 75 1015.8
20260504041338 44 275 0.0 0.0 0.00 0.00 0.00 75 1015.9
20260504040337 44 275 0.0 0.0 0.00 0.00 0.00 74 1015.8
20260504035832 44 275 0.0 0.0 0.00 0.00 0.00 75 1015.8
20260504035825 44 275 0.0 0.0 0.00 0.00 0.00 74 1015.8
20260504034824 44 275 0.0 0.0 0.00 0.00 0.00 74 1015.9
20260504034813 44 275 0.0 0.0 0.00 0.00 0.00 75 1015.8
20260504034418 44 275 0.0 0.0 0.00 0.00 0.00 75 1015.8
20260504033315 45 275 0.0 0.0 0.00 0.00 0.00 74 1015.7
20260504033311 44 275 0.0 0.0 0.00 0.00 0.00 75 1015.7
20260504032313 45 275 0.0 0.0 0.00 0.00 0.00 73 1015.6
20260504032309 45 275 0.0 0.0 0.00 0.00 0.00 73 1015.6
20260504031309 45 275 0.0 0.0 0.00 0.00 0.00 72 1015.5
20260504030806 45 275 0.0 0.0 0.00 0.00 0.00 71 1015.5
20260504030306 45 275 0.0 0.0 0.00 0.00 0.00 69 1015.5
20260504030300 46 275 0.0 0.0 0.00 0.00 0.00 69 1015.5
20260504025301 46 275 0.0 0.0 0.00 0.00 0.00 69 1015.4
20260504024803 46 275 0.0 0.0 0.00 0.00 0.00 66 1015.3
20260504024758 46 275 0.0 0.0 0.00 0.00 0.00 67 1015.3
20260504023749 46 275 0.0 0.0 0.00 0.00 0.00 65 1015.3
20260504023248 46 275 0.0 0.0 0.00 0.00 0.00 65 1015.3
20260504022742 47 275 0.0 0.0 0.00 0.00 0.00 64 1015.2
20260504022738 47 275 0.0 0.0 0.00 0.00 0.00 64 1015.2
20260504021740 47 275 0.0 0.0 0.00 0.00 0.00 62 1015.2
20260504021734 47 275 0.0 0.0 0.00 0.00 0.00 62 1015.2
20260504020734 48 275 0.0 0.0 0.00 0.00 0.00 61 1015.1
20260504020232 48 275 0.0 0.0 0.00 0.00 0.00 60 1015.2
20260504015734 48 275 0.0 0.0 0.00 0.00 0.00 57 1015.1
20260504015232 48 275 0.0 0.0 0.00 0.00 0.00 57 1015.1
20260504014731 49 275 0.0 0.0 0.00 0.00 0.00 56 1015.0
20260504014230 49 275 0.0 0.0 0.00 0.00 0.00 57 1014.9
20260504013734 49 275 0.0 1.7 0.00 0.00 0.00 56 1015.0
20260504013729 49 275 0.0 0.0 0.00 0.00 0.00 56 1014.9
20260504012729 50 275 0.0 1.7 0.00 0.00 0.00 56 1014.9
20260504012228 50 275 0.0 1.7 0.00 0.00 0.00 57 1014.9
20260504011724 51 275 0.0 1.7 0.00 0.00 0.00 55 1014.8
20260504011226 50 275 0.0 0.0 0.00 0.00 0.00 53 1014.9
20260504010725 51 275 0.0 0.0 0.00 0.00 0.00 55 1014.9
20260504010224 51 275 0.0 0.0 0.00 0.00 0.00 51 1014.8
20260504005726 51 275 0.0 0.0 0.00 0.00 0.00 51 1014.8
20260504005228 52 275 0.0 0.0 0.00 0.00 0.00 50 1014.8
20260504005223 52 275 0.0 0.0 0.00 0.00 0.00 51 1014.7
20260504004222 53 275 0.0 0.0 0.00 0.00 0.00 51 1014.6
20260504003723 53 275 0.0 0.0 0.00 0.00 0.00 48 1014.6
20260504003222 53 275 0.0 0.0 0.00 0.00 0.00 47 1014.6
20260504002729 54 275 0.0 0.0 0.00 0.00 0.00 45 1014.5
20260504002724 54 275 0.0 0.0 0.00 0.00 0.00 46 1014.5
20260504001836 56 275 0.0 2.6 0.00 0.00 0.00 43 1014.3
20260504001720 55 275 0.0 0.9 0.00 0.00 0.00 44 1014.5
20260504001226 56 275 0.0 2.6 0.00 0.00 0.00 43 1014.4
20260504001221 55 275 0.0 0.9 0.00 0.00 0.00 44 1014.5
20260503235720 56 275 0.0 2.6 0.00 0.00 0.00 41 1014.3
20260503235221 57 298 0.0 3.5 0.00 0.00 0.00 40 1014.2
20260503235216 57 275 0.0 2.6 0.00 0.00 0.00 41 1014.4
20260503234216 58 308 0.9 3.5 0.00 0.00 0.00 40 1014.2
20260503233812 59 322 1.7 7.8 0.00 0.00 0.00 39 1014.2
20260503233716 58 174 0.9 3.5 0.00 0.00 0.00 39 1014.2
20260503233708 60 315 2.6 7.8 0.00 0.00 0.00 38 1014.2
20260503232207 60 239 3.5 7.8 0.00 0.00 0.00 34 1014.1
20260503231707 61 269 4.3 9.6 0.00 0.00 0.00 33 1014.1
20260503231158 61 309 3.5 9.6 0.00 0.00 0.00 33 1014.0
20260503230658 61 281 3.5 7.8 0.00 0.00 0.00 33 1014.0
20260503230203 60 289 1.7 7.8 0.00 0.00 0.00 34 1014.0
20260503230159 61 260 2.6 7.8 0.00 0.00 0.00 34 1013.9
20260503225156 60 355 0.9 7.0 0.00 0.00 0.00 36 1014.0
20260503224653 61 355 2.6 7.0 0.00 0.00 0.00 37 1014.0
20260503224154 61 329 3.5 7.0 0.00 0.00 0.00 33 1014.0
20260503223655 61 323 3.5 8.7 0.00 0.00 0.00 31 1014.0
20260503223159 61 44 4.3 13.9 0.00 0.00 0.00 32 1014.1
20260503223154 62 314 2.6 13.0 0.00 0.00 0.00 32 1014.1
20260503222758 61 0 4.3 13.0 0.00 0.00 0.00 32 1014.1
20260503221653 61 343 2.6 13.9 0.00 0.00 0.00 35 1014.1
20260503221147 62 290 4.3 11.3 0.00 0.00 0.00 32 1014.1
20260503221143 61 340 3.5 11.3 0.00 0.00 0.00 35 1014.1
20260503220129 62 313 4.3 11.3 0.00 0.00 0.00 32 1014.1
20260503215631 62 298 4.3 9.6 0.00 0.00 0.00 33 1014.1
20260503215134 62 301 4.3 13.0 0.00 0.00 0.00 33 1014.2
20260503215129 62 314 4.3 9.6 0.00 0.00 0.00 32 1014.1
20260503214131 62 313 4.3 13.0 0.00 0.00 0.00 32 1014.2
20260503213630 62 329 5.2 13.0 0.00 0.00 0.00 34 1014.2
20260503213125 62 281 4.3 13.0 0.00 0.00 0.00 30 1014.3
20260503212626 63 16 4.3 11.3 0.00 0.00 0.00 31 1014.2
20260503212125 62 351 4.3 11.3 0.00 0.00 0.00 31 1014.3
20260503211621 62 0 4.3 11.3 0.00 0.00 0.00 35 1014.2
20260503211122 62 267 5.2 17.4 0.00 0.00 0.00 31 1014.3
20260503210622 61 293 3.5 17.4 0.00 0.00 0.00 32 1014.2
20260503210121 62 277 4.3 17.4 0.00 0.00 0.00 37 1014.4
20260503210117 61 349 3.5 17.4 0.00 0.00 0.00 36 1014.2
20260503205117 62 324 4.3 11.3 0.00 0.00 0.00 32 1014.4
20260503204618 62 320 4.3 11.3 0.00 0.00 0.00 31 1014.5
20260503204116 61 290 4.3 11.3 0.00 0.00 0.00 34 1014.4
20260503203614 61 281 6.1 13.0 0.00 0.00 0.00 33 1014.4
20260503203115 61 307 6.1 13.0 0.00 0.00 0.00 31 1014.4
20260503202613 61 295 5.2 13.0 0.00 0.00 0.00 31 1014.4
20260503202114 61 269 5.2 10.4 0.00 0.00 0.00 31 1014.5
20260503201613 61 265 5.2 10.4 0.00 0.00 0.00 32 1014.7
20260503201118 61 313 6.1 14.8 0.00 0.00 0.00 33 1014.9
20260503201114 61 259 6.1 14.8 0.00 0.00 0.00 34 1014.6
20260503200113 60 294 5.2 16.5 0.00 0.00 0.00 34 1014.8
20260503195614 60 309 5.2 16.5 0.00 0.00 0.00 33 1014.9
20260503195114 61 330 6.1 16.5 0.00 0.00 0.00 33 1014.9
20260503195110 61 9 6.1 16.5 0.00 0.00 0.00 32 1014.9
20260503194722 60 317 5.2 16.5 0.00 0.00 0.00 35 1014.9
20260503193609 60 316 6.1 16.5 0.00 0.00 0.00 34 1015.1
20260503193108 60 278 6.1 16.5 0.00 0.00 0.00 34 1015.2
20260503192609 60 292 6.1 16.5 0.00 0.00 0.00 35 1015.4
20260503192114 59 296 5.2 16.5 0.00 0.00 0.00 36 1015.5
20260503192110 59 302 7.0 16.5 0.00 0.00 0.00 36 1015.4
20260503191109 59 286 4.3 12.2 0.00 0.00 0.00 38 1015.4
20260503190604 59 290 5.2 13.0 0.00 0.00 0.00 37 1015.6
20260503190559 59 34 5.2 13.0 0.00 0.00 0.00 37 1015.5
20260503185559 59 301 5.2 16.5 0.00 0.00 0.00 39 1015.6
20260503185100 58 302 5.2 16.5 0.00 0.00 0.00 38 1015.7
20260503184600 58 47 5.2 16.5 0.00 0.00 0.00 38 1015.9
20260503184555 58 310 7.0 16.5 0.00 0.00 0.00 38 1015.7
20260503183555 57 55 4.3 12.2 0.00 0.00 0.00 39 1015.9
20260503183055 58 290 5.2 13.9 0.00 0.00 0.00 39 1015.9
20260503182557 58 287 5.2 13.9 0.00 0.00 0.00 39 1015.9
20260503182553 58 287 6.1 13.9 0.00 0.00 0.00 43 1016.0
20260503181554 57 342 5.2 13.9 0.00 0.00 0.00 40 1016.0
20260503181052 58 349 3.5 13.9 0.00 0.00 0.00 41 1016.0
20260503180551 57 271 5.2 13.9 0.00 0.00 0.00 42 1016.1
20260503180048 57 324 6.1 17.4 0.00 0.00 0.00 39 1016.1
20260503175555 56 355 7.8 17.4 0.00 0.00 0.00 41 1016.2
20260503175550 58 304 6.1 17.4 0.00 0.00 0.00 39 1016.2
20260503174553 56 279 6.1 20.9 0.00 0.00 0.00 39 1016.4
20260503174548 56 39 8.7 20.9 0.00 0.00 0.00 40 1016.4
20260503173545 56 311 4.3 15.6 0.00 0.00 0.00 41 1016.2
20260503173043 57 335 7.0 15.6 0.00 0.00 0.00 39 1016.3
20260503172546 56 294 5.2 13.9 0.00 0.00 0.00 43 1016.3
20260503172541 57 17 7.0 15.6 0.00 0.00 0.00 40 1016.4
20260503171541 56 284 6.1 13.9 0.00 0.00 0.00 43 1016.5
20260503171036 56 346 5.2 13.9 0.00 0.00 0.00 39 1016.4
20260503170537 55 168 5.2 13.9 0.00 0.00 0.00 42 1016.6
20260503150509 51 263 6.1 14.8 0.00 0.00 0.00 47 1017.4